DW7013 Weather Reports


time (UTC)temp
C
wind
direction
speed
KPH
gust
KPH
rain 1hr
cm
rain 24hr
cm
rain mn
cm
humidity
%
barometer
mb
20260505213221 8 158 0.0 0.0 0.00 0.86 0.86 94 1010.2
20260505212725 8 147 0.0 0.0 0.00 0.86 0.86 94 1010.3
20260505212217 9 173 0.0 0.0 0.00 0.86 0.86 94 1010.3
20260505211707 9 173 0.0 0.0 0.00 0.86 0.86 93 1010.4
20260505211234 9 121 0.0 0.0 0.00 0.86 0.86 93 1010.2
20260505210232 9 257 0.0 0.0 0.00 0.86 0.86 93 1010.2
20260505205728 9 257 0.0 0.0 0.00 0.86 0.86 93 1010.2
20260505205218 9 140 0.0 0.0 0.00 0.86 0.86 93 1010.2
20260505204720 9 153 0.0 0.0 0.00 0.86 0.86 93 1010.2
20260505204215 9 137 0.0 0.0 0.00 0.86 0.86 93 1010.3
20260505203725 9 254 0.0 0.0 0.00 0.86 0.86 93 1010.2
20260505203214 9 255 0.0 0.0 0.00 0.86 0.86 93 1010.2
20260505202718 9 255 0.0 0.0 0.00 0.86 0.86 93 1010.2
20260505202222 9 234 0.0 0.0 0.00 0.86 0.86 93 1010.2
20260505201735 9 234 0.0 0.0 0.00 0.86 0.86 93 1010.1
20260505201213 9 235 0.0 0.0 0.00 0.86 0.86 93 1010.0
20260505200730 9 234 0.0 0.0 0.00 0.86 0.86 93 1010.0
20260505195728 9 234 0.0 0.0 0.00 0.86 0.86 92 1009.9
20260505195214 9 234 0.0 0.0 0.00 0.86 0.86 92 1009.8
20260505194721 9 348 0.0 0.0 0.00 0.86 0.86 92 1009.8
20260505194216 9 181 0.0 0.0 0.00 0.86 0.86 92 1009.9
20260505193217 10 188 0.0 0.0 0.00 0.86 0.86 91 1009.7
20260505192725 10 188 0.0 0.0 0.00 0.86 0.86 91 1009.7
20260505192217 10 132 0.0 0.0 0.03 0.86 0.86 91 1009.5
20260505191713 10 115 0.0 0.0 0.03 0.86 0.86 91 1009.8
20260505191211 10 115 0.0 0.0 0.05 0.86 0.86 91 1009.8
20260505190713 10 115 0.0 0.0 0.05 0.86 0.86 90 1009.7
20260505190222 10 115 0.0 0.0 0.10 0.86 0.86 91 1009.5
20260505185726 10 115 0.0 0.0 0.13 0.86 0.86 90 1009.5
20260505185213 10 115 0.0 8.0 0.18 0.86 0.86 90 1009.4
20260505184228 10 96 1.6 11.3 0.36 0.86 0.86 90 1009.4
20260505183713 10 164 1.6 11.3 0.36 0.86 0.86 90 1009.4
20260505183226 10 146 1.6 8.0 0.36 0.86 0.86 90 1009.5
20260505182728 10 136 3.2 8.0 0.33 0.84 0.84 90 1009.5
20260505182213 10 131 1.6 8.0 0.33 0.84 0.84 89 1009.3
20260505181714 10 142 1.6 8.0 0.33 0.81 0.81 89 1009.4
20260505181214 10 139 0.0 12.9 0.30 0.79 0.79 88 1009.7
20260505180729 10 140 1.6 16.1 0.30 0.79 0.79 87 1009.5
20260505180221 11 113 1.6 16.1 0.25 0.76 0.76 86 1009.5
20260505175214 11 40 1.6 4.8 0.15 0.64 0.64 86 1009.3
20260505174723 11 339 0.0 0.0 0.00 0.51 0.51 87 1009.4
20260505174221 11 161 0.0 0.0 0.00 0.51 0.51 86 1009.0
20260505173707 11 159 0.0 6.4 0.00 0.51 0.51 85 1009.0
20260505173223 11 162 0.0 6.4 0.00 0.51 0.51 85 1009.0
20260505172713 11 154 0.0 6.4 0.00 0.51 0.51 85 1009.0
20260505171711 11 138 0.0 4.8 0.00 0.51 0.51 85 1009.0
20260505170713 12 113 0.0 4.8 0.00 0.53 0.51 86 1008.9
20260505170207 12 139 0.0 4.8 0.00 0.53 0.51 86 1009.0
20260505165726 11 140 0.0 0.0 0.00 0.56 0.51 86 1009.0
20260505165212 11 186 0.0 0.0 0.00 0.56 0.51 86 1009.0
20260505164715 11 133 0.0 0.0 0.00 0.58 0.51 87 1009.0
20260505164207 11 123 0.0 9.7 0.00 0.58 0.51 87 1009.1
20260505163715 11 125 1.6 9.7 0.00 0.58 0.51 87 1009.2
20260505163215 11 143 1.6 9.7 0.00 0.58 0.51 87 1009.1
20260505162729 11 179 1.6 11.3 0.00 0.61 0.51 86 1009.1
20260505162227 12 132 4.8 11.3 0.00 0.61 0.51 86 1009.0
20260505161721 12 145 4.8 11.3 0.00 0.61 0.51 86 1009.0
20260505161224 12 125 3.2 9.7 0.00 0.61 0.51 87 1009.0
20260505160718 12 127 3.2 12.9 0.00 0.61 0.51 86 1009.1
20260505160228 11 109 4.8 12.9 0.00 0.61 0.51 86 1009.0
20260505152728 11 143 1.6 8.0 0.43 0.61 0.51 89 1009.0
20260505152220 11 179 1.6 8.0 0.43 0.61 0.51 88 1009.0
20260505151722 11 107 1.6 8.0 0.43 0.61 0.51 89 1009.0
20260505151209 11 167 1.6 6.4 0.43 0.61 0.51 88 1009.0
20260505150226 11 157 0.0 0.0 0.43 0.61 0.51 86 1009.1
20260505140243 15 281 6.4 16.1 0.00 0.18 0.05 66 1008.5
20260505130219 15 126 3.2 12.9 0.00 0.18 0.05 71 1008.7
20260505124720 14 111 0.0 0.0 0.00 0.18 0.05 73 1008.8
20260505124229 14 165 0.0 0.0 0.00 0.18 0.05 76 1008.7
20260505123720 14 215 0.0 0.0 0.00 0.18 0.05 77 1008.8
20260505123222 14 161 0.0 0.0 0.00 0.18 0.05 84 1008.8
20260505122719 13 171 0.0 0.0 0.00 0.18 0.05 83 1009.0
20260505122227 13 130 0.0 0.0 0.00 0.18 0.05 85 1009.0
20260505121722 12 167 0.0 0.0 0.03 0.18 0.05 85 1009.0
20260505121223 12 175 0.0 0.0 0.03 0.18 0.05 85 1009.1
20260505120719 12 179 0.0 0.0 0.03 0.18 0.05 85 1009.1
20260505120212 12 171 0.0 0.0 0.03 0.18 0.05 87 1009.1
20260505115721 12 172 0.0 0.0 0.03 0.18 0.05 87 1009.2
20260505114719 12 159 0.0 0.0 0.03 0.18 0.05 87 1009.3
20260505114207 12 171 0.0 0.0 0.03 0.18 0.05 87 1009.3
20260505113726 12 188 0.0 0.0 0.03 0.18 0.05 87 1009.4
20260505113231 12 169 0.0 0.0 0.03 0.18 0.05 87 1009.4
20260505112217 12 178 0.0 0.0 0.00 0.15 0.05 87 1009.4
20260505111721 12 161 0.0 0.0 0.00 0.15 0.05 87 1009.4
20260505111210 12 145 0.0 0.0 0.00 0.15 0.05 87 1009.5
20260505110217 12 154 0.0 0.0 0.00 0.15 0.05 86 1009.5
20260505101725 12 271 0.0 0.0 0.00 0.15 0.05 83 1009.4
20260505101210 12 271 0.0 0.0 0.00 0.15 0.05 84 1009.4
20260505100711 12 271 0.0 0.0 0.00 0.15 0.05 84 1009.4
20260505095218 11 170 0.0 0.0 0.00 0.15 0.05 85 1009.4
20260505094217 11 174 0.0 0.0 0.00 0.15 0.05 85 1009.4
20260505093722 11 177 0.0 0.0 0.00 0.15 0.05 85 1009.4
20260505093212 11 167 0.0 0.0 0.03 0.15 0.05 86 1009.4
20260505092719 11 323 0.0 0.0 0.03 0.15 0.05 86 1009.4
20260505092220 11 323 0.0 0.0 0.03 0.15 0.05 85 1009.4
20260505091716 11 324 0.0 0.0 0.03 0.15 0.05 85 1009.4
20260505090711 11 309 0.0 0.0 0.05 0.15 0.05 84 1009.7
20260505090220 11 296 0.0 0.0 0.05 0.15 0.05 85 1009.8
20260505084727 11 173 0.0 0.0 0.05 0.15 0.05 86 1010.0
20260505084224 11 173 0.0 0.0 0.05 0.15 0.05 85 1010.1
20260505083716 11 173 0.0 0.0 0.03 0.15 0.03 85 1010.1
20260505083223 11 173 0.0 0.0 0.03 0.15 0.03 85 1010.1
20260505082716 11 173 0.0 0.0 0.03 0.15 0.03 85 1010.1
20260505082219 11 173 0.0 0.0 0.03 0.15 0.03 84 1010.2
20260505081220 11 176 0.0 0.0 0.00 0.13 0.00 83 1010.2
20260505080717 11 157 0.0 0.0 0.00 0.13 0.00 84 1010.2
20260505080227 11 150 0.0 0.0 0.00 0.13 0.00 82 1010.2
20260505075718 11 169 0.0 0.0 0.00 0.13 0.00 83 1010.2
20260505075209 11 168 0.0 0.0 0.00 0.13 0.00 82 1010.2
20260505074713 11 168 0.0 0.0 0.00 0.13 0.00 81 1010.2
20260505074226 11 168 0.0 0.0 0.00 0.13 0.00 82 1010.2
20260505073720 11 168 0.0 0.0 0.00 0.13 0.00 82 1010.2
20260505073212 11 168 0.0 0.0 0.00 0.13 0.00 84 1010.2
20260505072722 11 168 0.0 0.0 0.00 0.13 0.00 84 1010.2
20260505072226 11 172 0.0 0.0 0.00 0.13 0.00 85 1010.3
20260505071725 11 169 0.0 0.0 0.00 0.13 0.00 84 1010.2
20260505071213 11 186 0.0 0.0 0.00 0.13 0.00 84 1010.2
20260505070714 11 179 0.0 0.0 0.00 0.13 0.00 84 1010.3
20260505070221 11 184 0.0 0.0 0.00 0.13 0.00 85 1010.3
20260505065726 11 184 0.0 0.0 0.00 0.13 0.00 86 1010.4
20260505065223 11 184 0.0 0.0 0.00 0.13 0.00 88 1010.4
20260505064716 10 148 0.0 0.0 0.00 0.13 0.00 86 1010.4
20260505064225 10 148 0.0 0.0 0.00 0.13 0.00 86 1010.5
20260505063721 10 148 0.0 0.0 0.00 0.13 0.00 86 1010.5
20260505063218 10 148 0.0 0.0 0.00 0.13 0.00 87 1010.5
20260505062721 10 148 0.0 0.0 0.00 0.13 0.00 87 1010.6
20260505062224 10 148 0.0 0.0 0.00 0.13 0.00 87 1010.6
20260505061719 10 148 0.0 0.0 0.00 0.13 0.00 87 1010.6
20260505060718 10 148 0.0 0.0 0.00 0.13 0.00 88 1010.6
20260505060220 10 148 0.0 0.0 0.00 0.13 0.00 88 1010.6
20260505055715 10 344 0.0 0.0 0.00 0.13 0.00 88 1010.5
20260505055216 9 319 0.0 0.0 0.00 0.13 0.00 88 1010.6
20260505054717 9 157 0.0 0.0 0.00 0.13 0.00 87 1010.6
20260505053714 9 157 0.0 0.0 0.00 0.13 0.00 87 1010.7
20260505053220 9 157 0.0 0.0 0.00 0.13 0.00 87 1010.7
20260505052718 9 157 0.0 0.0 0.00 0.13 0.00 88 1010.7
20260505051710 9 144 0.0 0.0 0.00 0.13 0.00 88 1010.7
20260505051214 9 76 0.0 0.0 0.00 0.13 0.00 88 1010.6
20260505050749 8 24 0.0 0.0 0.00 0.13 0.00 88 1010.6
20260505050219 8 24 0.0 0.0 0.00 0.13 0.00 88 1010.7
20260505041716 8 5 0.0 0.0 0.00 0.13 0.00 88 1010.7
20260505040224 8 355 0.0 0.0 0.00 0.13 0.00 89 1010.8
20260505035217 8 355 0.0 0.0 0.00 0.13 0.00 89 1010.8
20260505034715 8 355 0.0 0.0 0.00 0.13 0.00 89 1010.7
20260505034219 8 333 0.0 0.0 0.00 0.13 0.00 89 1010.7
20260505033732 8 329 0.0 0.0 0.00 0.13 0.00 90 1010.7
20260505033220 8 325 0.0 0.0 0.00 0.13 0.00 90 1010.7
20260505031732 8 159 0.0 0.0 0.00 0.13 0.00 90 1011.1
20260505031215 8 159 0.0 0.0 0.00 0.13 0.00 90 1011.1
20260505030715 8 159 0.0 0.0 0.00 0.13 0.00 90 1011.2
20260505030217 8 159 0.0 0.0 0.00 0.13 0.00 90 1011.2
20260505025209 8 159 0.0 0.0 0.00 0.13 0.00 90 1011.3
20260505024720 8 159 0.0 0.0 0.00 0.13 0.00 89 1011.2
20260505024225 8 159 0.0 0.0 0.00 0.13 0.00 89 1011.3
20260505023715 8 159 0.0 0.0 0.00 0.13 0.00 89 1011.3
20260505023231 8 159 0.0 0.0 0.00 0.13 0.00 89 1011.3
20260505022221 8 35 0.0 0.0 0.00 0.13 0.00 89 1011.2
20260505021723 8 35 0.0 0.0 0.00 0.13 0.00 89 1011.3
20260505021217 8 329 0.0 0.0 0.00 0.13 0.00 89 1011.4
20260505020727 8 180 0.0 0.0 0.00 0.13 0.00 89 1011.5
20260505020223 8 180 0.0 0.0 0.00 0.13 0.00 89 1011.5
20260505015721 8 180 0.0 0.0 0.00 0.13 0.00 89 1011.6
20260505015223 8 180 0.0 0.0 0.00 0.13 0.00 89 1011.6
20260505014730 8 180 0.0 0.0 0.00 0.13 0.00 89 1011.6
20260505014220 8 98 0.0 0.0 0.00 0.13 0.00 89 1011.6
20260505012712 8 318 0.0 0.0 0.00 0.13 0.00 90 1011.8
20260505012221 8 351 0.0 0.0 0.00 0.13 0.00 90 1011.9
20260505011714 8 351 0.0 0.0 0.00 0.13 0.00 90 1012.0
20260505011208 8 355 0.0 0.0 0.00 0.13 0.00 90 1012.0
20260505010732 8 5 0.0 0.0 0.00 0.13 0.00 89 1012.1
20260505010227 8 46 0.0 0.0 0.00 0.13 0.00 89 1012.1
20260505005728 8 46 0.0 0.0 0.00 0.13 0.00 89 1012.2
20260505005217 8 53 0.0 0.0 0.00 0.13 0.00 89 1012.2
20260505004231 8 63 0.0 0.0 0.00 0.13 0.00 88 1012.5
20260505003213 8 63 0.0 0.0 0.00 0.13 0.00 89 1012.6
20260505001725 9 30 0.0 0.0 0.00 0.13 0.00 89 1012.7
20260505001219 9 30 0.0 0.0 0.00 0.13 0.00 89 1012.8
20260505000730 9 350 0.0 0.0 0.00 0.13 0.00 90 1012.8
20260504235708 9 350 0.0 0.0 0.00 0.13 0.00 90 1013.0
20260504235212 9 351 0.0 0.0 0.00 0.13 0.00 90 1013.0
20260504234713 9 355 0.0 0.0 0.00 0.13 0.00 90 1013.1
20260504234226 9 5 0.0 0.0 0.00 0.13 0.00 90 1013.1
20260504233707 9 13 0.0 0.0 0.00 0.13 0.00 90 1013.1
20260504233224 9 13 0.0 0.0 0.00 0.13 0.00 90 1013.1
20260504232219 9 343 0.0 0.0 0.00 0.13 0.00 90 1013.2
20260504231730 9 346 0.0 0.0 0.00 0.13 0.00 90 1013.2
20260504230733 9 346 0.0 0.0 0.00 0.13 0.00 90 1013.4
20260504230225 9 5 0.0 0.0 0.00 0.13 0.00 90 1013.4
20260504225722 9 5 0.0 0.0 0.00 0.13 0.00 90 1013.4
20260504225211 9 5 0.0 0.0 0.00 0.13 0.00 90 1013.4
20260504224712 9 5 0.0 0.0 0.00 0.13 0.00 90 1013.5
20260504224230 9 5 0.0 0.0 0.00 0.13 0.00 90 1013.4
20260504223718 9 355 0.0 0.0 0.00 0.13 0.00 90 1013.3
20260504223210 9 348 0.0 0.0 0.00 0.13 0.00 90 1013.3
20260504222710 9 77 0.0 0.0 0.00 0.13 0.00 90 1013.3
20260504221712 9 342 0.0 0.0 0.00 0.13 0.00 89 1013.3
20260504220728 9 330 0.0 0.0 0.00 0.13 0.00 89 1013.5
20260504220224 10 0 0.0 0.0 0.00 0.13 0.13 90 1013.5